Dewpoint
68 69 69 68 68 68 68 67 67 66 66 65 65 64 65 65 65 63 64 63 63 63 62 62 63 63 60 59 60 60 64 65 65 64 64 64 65 66 68 68 68 67 64 63 62 62 62 60 61 62 61 59 59 63 65 64 64 63 63 62 62 61 60 61 60 60 60 59 59 59 58 58 58 58 57 57 57 57 57 57 56 56 56 56 56
67 68 68 68 69 68 68 67 66 66 65 65 65 65 65 64 64 63 60 62 61 63 62 61 59 61 59 58 59 60 63 64 64 64 64 65 66 66 68 68 67 67 67 64 63 62 61 60 60 60 60 60 60 59 63 64 65 64 64 63 62 62 61 61 61 60 60 59 59 58 58 58 58 57 57 57 56 57 57 57 56 57 56 56 55
68 68 69 69 68 68 67 67 66 65 66 66 67 66 66 65 65 63 62 61 62 63 61 61 59 57 59 57 58 62 62 64 63 63 63 64 65 66 67 68 68 67 67 67 66 63 63 62 61 61 60 61 60 60 59 59 62 63 64 63 63 62 62 61 61 60 60 60 59 59 58 58 58 58 57 57 57 56 56 56 56 56 56 56 57
67 67 67 67 66 67 66 67 66 66 67 66 66 66 66 63 64 65 66 65 64 64 63 61 60 57 58 57 58 60 61 63 63 64 63 65 64 65 66 67 68 67 67 67 67 67 64 62 62 61 60 60 61 60 60 60 59 60 65 64 63 63 62 62 61 60 60 60 59 59 59 58 58 58 57 56 57 56 56 56 56 56 56 55 56
66 66 66 66 66 67 66 66 66 67 67 68 67 67 66 65 66 65 64 65 65 64 61 63 62 61 61 57 60 59 60 60 63 64 64 64 64 64 65 65 66 68 67 67 67 67 66 64 63 62 61 60 60 60 60 60 59 59 59 65 64 64 63 62 61 61 60 60 59 59 59 58 58 57 57 57 57 57 57 57 56 56 56 56 55
65 66 66 65 66 66 66 66 67 66 67 67 67 66 64 64 64 63 63 63 63 63 62 61 60 60 61 59 61 64 63 60 62 64 65 64 64 65 64 64 64 65 65 67 67 66 66 67 64 63 63 62 61 60 60 60 61 59 58 66 65 64 63 63 62 61 61 60 60 59 59 58 58 58 58 57 57 57 56 56 56 56 55 55 55
65 65 65 65 65 66 66 66 66 67 66 67 67 67 65 64 62 61 63 63 62 62 61 62 62 61 63 64 61 61 64 63 64 63 63 65 66 64 65 64 65 64 64 64 67 67 66 67 66 66 64 63 62 61 61 61 60 61 60 60 65 64 64 63 63 62 61 61 60 60 59 59 58 58 57 58 57 57 56 57 56 56 55 55 55
65 64 65 64 65 66 66 65 65 66 66 67 66 65 65 65 64 63 62 61 61 62 63 62 63 63 64 65 65 64 63 63 63 61 62 64 62 65 65 65 65 64 65 64 65 66 66 66 66 67 67 64 63 62 62 61 61 60 61 60 62 64 64 64 63 63 62 61 61 60 59 60 59 59 58 58 58 58 57 57 56 56 56 55 55
65 64 65 64 64 64 65 65 66 65 66 66 66 66 66 66 66 65 64 63 62 64 65 64 64 64 65 65 65 65 64 64 64 64 61 64 64 62 64 64 65 65 66 64 65 65 66 66 67 66 66 67 66 64 63 63 62 62 62 61 60 63 64 63 64 63 63 63 62 61 61 60 60 59 59 59 58 58 58 58 56 56 56 56 55
64 64 66 64 65 64 65 65 65 65 65 65 66 66 66 66 65 66 65 63 63 63 62 63 63 63 64 64 64 64 64 64 65 64 63 62 64 64 64 65 64 64 63 63 63 65 65 66 66 66 66 65 65 66 65 64 64 64 64 63 62 61 64 63 62 64 64 64 63 62 61 61 60 60 59 59 59 58 58 58 57 57 56 56 56
64 64 65 65 65 64 65 65 65 65 65 65 65 65 66 67 65 64 65 65 65 64 64 63 63 62 61 63 64 64 64 64 64 63 63 63 63 63 62 65 64 65 65 65 64 65 65 65 64 65 66 65 66 66 66 65 65 65 64 64 64 63 62 62 63 63 64 64 64 63 62 62 61 60 60 59 59 59 59 58 58 58 57 57 57
64 64 64 64 64 64 64 64 65 64 65 65 64 64 65 65 65 64 63 63 63 63 64 63 62 61 61 63 63 63 62 63 64 63 64 63 63 63 64 67 67 65 65 65 66 65 64 65 64 64 64 65 65 66 66 66 66 67 66 65 64 64 64 63 62 62 63 64 64 64 64 62 62 61 60 60 60 59 59 58 58 58 58 57 57
64 64 64 64 64 64 64 64 64 64 64 65 65 64 65 65 64 64 63 63 62 63 63 63 61 60 61 62 62 63 63 62 62 64 63 63 63 62 62 64 65 64 64 65 64 64 64 65 65 65 65 64 65 65 65 65 65 66 66 65 65 65 65 65 64 65 64 63 64 64 64 63 62 62 62 61 60 60 59 59 58 58 58 58 57
64 64 64 64 64 64 64 64 64 64 64 63 64 64 64 64 64 63 63 63 62 62 61 62 59 59 59 59 60 62 62 62 60 60 63 63 64 64 64 62 61 63 63 63 64 64 64 65 66 65 63 63 63 64 65 65 65 65 65 66 66 65 65 65 65 65 64 64 65 63 65 64 63 63 62 62 61 60 60 60 59 58 58 58 58
64 63 63 64 64 64 63 63 63 63 63 63 63 63 64 64 64 64 62 62 62 62 62 64 60 61 61 58 56 57 59 60 61 61 61 61 62 62 62 60 61 62 63 63 63 63 62 63 64 62 61 60 60 61 63 63 64 64 64 64 65 65 66 65 65 65 65 64 64 65 65 65 64 63 63 63 62 61 60 60 60 59 59 59 58
63 62 63 63 64 63 63 62 63 63 62 62 63 62 63 64 64 64 63 61 61 61 62 62 60 59 56 57 56 56 54 55 59 60 61 61 61 60 59 59 60 60 62 61 61 62 62 61 61 60 59 59 58 59 59 61 62 64 64 63 63 63 65 65 65 64 65 65 64 64 64 65 65 64 64 63 63 62 61 60 60 60 59 59 59
64 64 62 63 63 63 63 62 62 63 62 62 61 61 62 63 63 63 63 63 61 62 61 62 61 62 59 56 54 53 54 56 57 58 61 60 60 60 61 60 60 61 61 60 62 62 61 61 62 60 60 60 58 58 57 58 60 61 61 60 61 62 63 64 64 65 65 64 64 65 65 64 64 65 64 64 63 63 62 61 60 60 60 60 59
63 64 64 63 63 62 63 62 63 62 62 62 61 61 62 62 62 63 62 63 62 60 61 62 60 61 63 63 60 57 54 58 57 53 60 60 60 56 55 55 57 58 58 58 58 60 60 58 58 58 59 60 59 58 59 60 58 58 57 59 60 61 61 62 63 64 65 65 65 65 64 65 64 64 65 64 64 63 63 62 61 61 61 60 60
63 64 64 63 63 63 63 63 62 62 62 62 62 62 61 61 62 62 61 61 62 60 61 60 61 60 60 60 60 60 62 56 54 56 55 55 53 54 52 50 54 55 55 55 54 54 54 54 53 52 54 55 56 57 58 59 60 61 61 60 60 58 58 58 61 62 63 64 65 65 65 64 65 64 64 65 64 64 63 63 62 62 62 62 61
61 61 63 63 63 63 63 63 62 61 61 61 61 61 62 62 62 63 62 62 62 61 59 60 60 58 60 60 60 61 61 61 59 56 54 50 46 49 50 51 51 51 50 50 51 52 53 50 44 45 48 48 50 51 54 57 59 59 56 58 58 57 56 55 54 54 57 61 64 64 64 65 65 65 64 64 65 65 64 64 63 63 63 63 62
58 60 61 62 63 63 63 63 63 62 60 60 61 60 62 62 62 62 62 62 61 61 60 59 61 60 60 60 60 59 59 60 59 57 54 50 47 46 46 47 49 50 50 49 48 50 49 48 44 43 47 47 46 46 48 50 52 50 51 54 56 55 54 53 51 51 52 58 61 63 64 64 65 65 64 64 63 64 64 64 64 63 63 63 63
59 59 61 61 62 62 62 62 62 61 59 60 61 61 61 61 62 62 62 61 61 61 61 60 60 60 60 60 59 58 58 57 56 54 53 52 48 45 47 46 44 45 49 46 46 45 45 46 46 42 44 45 45 45 48 47 49 48 51 52 54 54 54 52 49 50 52 54 57 62 63 64 64 65 64 64 64 64 64 64 65 64 64 64 64
58 59 59 60 61 60 60 60 61 60 59 59 61 59 61 61 61 61 61 61 60 60 59 60 60 60 60 59 58 57 57 56 55 54 52 50 46 45 45 42 43 46 47 46 44 40 40 43 43 43 44 44 44 45 48 47 49 50 51 52 52 52 52 51 49 49 50 54 55 59 62 64 64 64 64 64 64 64 64 64 64 64 64 65 64
58 58 58 58 59 59 59 59 59 60 60 59 59 59 59 58 59 59 60 60 60 60 60 59 60 59 57 53 53 54 53 51 49 51 51 48 47 45 43 42 41 42 44 47 42 40 39 38 38 40 41 41 42 46 47 46 46 53 49 51 51 50 50 50 49 49 48 51 53 56 59 62 63 64 64 64 64 64 64 64 64 64 64 64 64
56 57 56 58 58 58 58 58 58 58 58 57 57 56 56 56 56 58 59 60 59 60 58 58 58 54 51 53 50 49 48 50 50 48 50 50 47 44 43 43 44 43 43 45 42 39 38 37 37 37 36 39 40 44 45 46 45 50 50 50 50 50 49 49 49 48 48 48 50 53 55 57 59 59 60 61 62 62 62 61 56 55 57 58 61
56 55 55 56 56 57 58 58 57 57 56 57 56 55 56 52 55 56 56 56 56 56 55 55 55 55 54 51 51 49 50 51 49 48 46 45 42 44 45 46 46 40 40 39 41 39 39 37 37 36 36 39 42 44 47 43 46 49 51 48 48 49 48 48 48 46 45 45 46 48 50 51 54 56 56 55 55 54 54 53 54 54 53 53 54
53 55 55 57 57 57 57 57 57 57 56 56 55 55 56 53 53 55 54 54 54 54 54 54 53 53 55 52 51 50 49 47 46 45 42 45 45 46 44 44 45 44 42 38 37 39 40 38 35 33 32 41 42 44 43 43 45 49 49 49 48 48 47 47 47 47 46 45 44 44 45 47 48 49 50 51 51 51 52 52 52 51 51 52 53
55 55 56 56 56 56 56 56 55 56 55 55 54 53 55 55 53 54 52 51 54 54 53 54 54 54 53 52 49 48 50 47 46 47 44 47 46 47 46 41 41 41 43 42 41 38 38 38 35 31 27 33 37 42 44 40 41 49 48 47 48 47 47 46 46 46 45 45 44 44 44 45 45 46 47 49 50 50 51 51 51 51 50 52 53
56 56 56 56 56 56 56 56 56 55 55 54 54 53 54 54 53 53 52 53 53 52 53 52 53 53 53 53 50 48 48 51 49 49 50 50 48 47 41 39 40 38 39 41 41 41 38 35 30 28 28 30 37 37 39 36 43 44 42 44 45 46 47 47 45 45 45 44 43 43 43 44 44 46 47 47 48 48 48 49 49 49 50 51 51
56 56 56 57 57 56 56 55 56 55 55 53 52 53 54 52 52 51 51 52 51 51 52 51 53 52 52 51 50 48 52 50 49 52 51 51 49 47 44 44 42 38 38 36 39 43 42 39 30 24 28 28 31 38 38 36 44 41 40 39 42 44 46 46 46 44 44 43 43 42 42 43 43 44 46 46 46 47 46 47 48 48 49 49 49
55 55 55 55 55 55 56 55 55 55 54 54 53 53 52 52 52 50 52 51 49 50 52 52 51 51 50 50 50 48 52 52 52 51 52 50 48 45 45 44 45 45 42 39 39 42 44 40 32 27 29 29 29 38 39 37 39 41 42 42 37 46 46 44 45 45 44 43 42 42 42 43 43 43 43 44 45 46 45 46 48 48 48 49 48
56 55 54 54 54 54 54 54 55 54 53 53 53 52 53 53 52 50 51 50 48 48 48 49 46 49 49 48 48 47 49 48 50 51 49 50 50 44 44 44 43 45 41 39 39 41 44 37 31 28 30 36 31 31 35 33 38 44 38 39 41 45 37 41 45 45 44 43 42 42 42 43 42 42 42 42 42 44 44 44 46 46 46 45 45
55 55 53 53 52 53 52 53 52 54 53 53 54 53 52 52 52 51 50 48 47 48 48 49 47 48 46 46 46 48 50 48 48 48 45 44 46 45 45 41 39 41 39 41 39 40 43 39 33 28 33 36 28 31 33 38 39 37 40 40 40 39 38 38 41 44 44 43 42 41 41 41 40 41 40 40 41 42 42 42 44 44 44 43 43
55 54 52 54 53 52 51 51 53 52 53 53 53 53 52 53 53 53 51 48 47 48 50 45 47 48 49 44 44 48 48 45 47 39 40 40 39 38 40 38 33 36 41 36 36 36 37 37 32 30 31 36 29 31 37 39 39 39 32 36 36 35 35 37 35 41 44 44 42 41 41 41 41 40 40 40 40 41 42 42 41 41 42 42 42
54 54 54 54 53 52 51 52 51 52 52 53 54 53 54 53 51 53 53 50 49 49 49 47 44 46 47 46 46 48 49 47 48 46 46 41 38 37 40 35 35 35 32 32 35 33 34 31 35 30 35 36 36 29 32 36 38 34 32 35 34 33 34 37 36 34 44 44 43 42 41 41 41 40 39 40 40 40 40 41 41 41 41 42 42
53 54 55 53 53 52 52 51 51 51 51 53 53 52 51 52 52 51 52 52 50 49 47 46 45 47 48 48 48 48 48 47 46 46 46 45 43 40 40 39 38 36 37 38 36 34 33 32 34 26 32 36 33 31 31 33 35 34 34 34 34 34 35 34 35 33 39 44 43 42 41 41 41 40 39 40 40 40 40 40 41 41 41 41 42
53 54 53 53 53 52 54 51 51 51 51 51 51 52 53 53 52 52 52 51 52 50 50 49 51 48 49 48 47 47 48 46 48 45 44 46 40 41 38 35 33 36 38 36 34 35 36 36 36 36 37 33 31 35 32 31 32 33 34 35 34 34 39 39 36 33 40 43 42 41 40 40 39 39 40 40 40 40 40 40 41 41 41 42 41
55 54 54 53 53 52 51 51 51 51 51 51 50 50 51 53 53 54 53 53 52 51 51 50 49 50 50 48 49 48 47 48 47 47 46 46 43 42 38 32 30 36 39 38 38 38 35 34 37 38 39 36 37 38 34 35 36 35 35 36 37 37 39 40 38 35 37 36 41 38 40 37 37 38 39 39 39 39 40 40 41 41 41 41 41
55 55 54 54 55 53 52 53 52 52 52 52 52 53 51 51 52 52 53 53 53 53 52 51 50 51 50 49 50 50 48 48 49 48 48 48 46 44 42 41 33 37 38 37 35 37 37 37 37 38 37 39 39 36 32 35 35 34 37 37 37 34 39 39 39 36 39 40 39 39 38 37 39 38 39 39 39 40 40 40 41 42 41 41 40
56 54 54 54 55 54 54 53 54 54 54 54 54 54 53 54 54 53 53 54 53 53 54 52 52 52 52 51 51 50 50 51 50 50 50 48 46 44 42 40 39 39 39 39 39 36 37 38 35 36 37 37 38 39 36 37 37 35 36 38 37 37 37 39 39 37 38 37 36 34 35 36 35 36 38 39 41 40 40 41 41 42 42 40 40
58 56 55 55 54 54 54 55 54 55 55 56 56 56 56 55 55 55 54 53 54 53 53 53 53 52 51 52 52 52 52 52 49 50 49 48 47 44 41 40 40 40 40 39 38 36 37 37 38 39 37 38 37 38 37 37 37 36 39 40 38 37 36 36 35 37 36 35 34 32 31 36 33 35 33 34 35 39 38 40 40 40 40 39 40
57 56 56 56 54 55 55 55 55 56 58 58 56 50 51 55 55 54 55 54 53 53 53 53 53 52 51 52 53 52 49 48 46 44 42 43 44 44 42 41 39 40 40 40 38 37 38 37 36 36 37 37 37 39 39 40 40 40 39 39 37 35 35 34 34 39 37 36 34 33 31 34 35 33 33 34 37 39 39 39 38 38 39 39 40
57 57 56 55 56 56 55 55 55 57 58 55 49 46 45 48 54 56 55 54 54 54 54 54 53 54 54 51 52 52 49 48 48 42 41 40 39 38 39 40 41 42 41 40 39 40 37 37 37 37 36 37 39 40 39 38 40 40 38 38 36 35 33 30 29 33 39 36 34 33 33 37 36 31 31 34 37 38 38 38 39 39 39 39 40
57 57 57 56 57 56 57 56 57 56 57 51 46 45 44 44 47 55 56 55 55 55 54 53 53 53 53 54 53 53 52 50 50 49 44 40 38 37 36 37 36 36 38 44 41 39 39 37 37 38 38 38 38 39 38 39 38 38 38 37 36 34 33 31 31 31 34 38 35 33 34 36 36 35 35 35 35 38 35 38 39 39 39 39 39
57 57 55 56 56 56 56 55 56 56 57 50 45 45 43 43 41 47 54 55 55 55 54 54 54 53 54 54 54 53 50 51 50 50 47 43 38 38 38 37 37 36 34 35 37 44 41 38 38 39 39 38 38 38 41 40 39 38 36 33 34 34 34 32 32 31 34 37 35 33 31 33 35 34 34 36 36 38 37 37 38 39 39 39 39
57 55 56 55 55 55 55 55 55 56 56 48 44 44 43 41 40 42 55 57 57 56 56 55 55 55 55 54 53 53 52 51 50 49 47 42 39 39 40 39 40 40 38 36 36 36 38 40 40 39 41 39 38 40 40 39 37 34 33 33 35 34 34 34 36 35 36 36 34 33 32 31 33 34 33 34 35 36 37 37 38 38 39 39 39
55 55 55 54 54 54 55 55 55 55 55 41 41 40 40 40 39 39 55 56 56 57 56 55 55 55 54 54 54 53 51 50 50 48 45 42 41 41 41 41 41 41 42 42 43 42 41 42 42 41 41 40 39 38 38 38 38 37 37 36 36 36 36 37 37 37 37 36 36 35 30 30 33 33 33 34 35 34 35 36 38 38 39 39 39
54 54 53 54 54 54 54 54 55 56 53 38 39 39 39 39 38 51 55 56 56 56 54 52 51 51 51 52 52 51 50 49 42 38 40 40 40 40 41 41 40 40 39 37 37 37 41 41 40 39 39 40 38 39 38 37 36 38 37 36 37 37 35 32 31 33 32 35 36 33 32 31 33 33 32 33 34 34 34 35 36 38 39 39 39
54 54 54 54 53 54 53 53 54 56 53 42 38 39 38 37 44 55 56 55 54 52 50 49 49 49 49 49 49 48 48 45 38 35 36 39 41 41 41 41 40 38 37 37 36 36 35 35 35 34 34 34 35 35 36 36 37 37 34 33 33 33 31 29 31 32 31 33 33 34 33 31 33 32 32 32 33 33 33 35 37 36 38 39 39
53 53 52 51 51 52 53 53 54 54 53 44 37 38 38 38 47 55 54 53 51 49 47 46 46 46 45 46 46 46 45 41 36 36 36 40 42 41 40 38 37 35 35 36 37 37 35 35 34 33 34 34 35 35 36 36 36 37 34 30 33 31 31 31 29 30 31 31 31 34 32 30 31 32 30 31 31 33 33 33 35 36 37 37 36
50 49 48 47 47 48 49 51 45 52 51 43 38 37 37 37 46 54 51 50 49 47 45 43 44 43 42 41 41 43 43 40 36 36 37 41 42 41 40 39 37 37 36 36 37 36 37 37 37 38 37 37 39 37 37 36 36 36 36 35 33 31 29 29 30 30 29 30 33 34 30 30 30 30 30 29 29 30 33 33 34 34 33 33 33